Hourly Weather Roundup
Issued by NWS Central Illinois

Home | Current Version | Previous Version | Text Only | Print | Product List | Glossary On
Versions: 1 2 3 4 5 6 7 8 9 10 11 12 13 14 15 16 17 18 19 20 21 22 23 24 25 26 27 28 29 30 31 32 33 34 35 36 37 38 39 40 41 42 43 44 45 46 47 48 49 50
000
NZUS43 KILX 010410
HWRILX

AREA WEATHER ROUNDUP
NATIONAL WEATHER SERVICE, LINCOLN IL
1100 PM CDT SUN AUG 31 2014


CITY           SKY/WX    TMP DP  RH WIND       PRES   REMARKS
BLOOMINGTON    CLEAR     71  69  93 S9        29.92R
CHAMPAIGN      CLEAR     73  71  93 S6        29.94R
DECATUR        CLEAR     73  71  93 S9        29.92R
FLORA          CLEAR     73  71  94 S6        29.94S
GALESBURG      MOCLDY    72  69  91 S6        29.85R
JACKSONVILLE   CLEAR     77  73  85 S9        29.88S
LACON          CLEAR     74  69  85 S8        29.85F
LAWRENCEVILLE  CLEAR     74  73  97 S6        29.95R
LITCHFIELD     CLEAR     73  71  93 SE9       29.90S
$$


CITY           SKY/WX    TMP DP  RH WIND       PRES   REMARKS
LINCOLN        CLEAR     74  72  91 S5        29.86F
MACOMB         MOCLDY    73  70  92 S7        29.86F
MATTOON        PTCLDY    74  71  91 S6        29.93R
MT CARMEL AP   CLEAR     75  72  88 CALM      29.95R
OLNEY-NOBLE AP CLEAR     72  72 100 CALM      29.94S
PARIS          CLEAR     72  71  96 S6        29.95R
PEORIA         CLEAR     77  70  79 S12       29.86F
PONTIAC        CLEAR     73  72  94 S8        29.89S
RANTOUL        CLEAR     73  69  88 SE5       29.94R
ROBINSON       PTCLDY    75  73  94 S5        29.95R
SPRINGFIELD    CLEAR     76  71  85 S10       29.88F
TAYLORVILLE    CLEAR     72  70  94 SE8       29.91S
$$

...REGIONAL REPORTS...


CITY           SKY/WX    TMP DP  RH WIND       PRES   REMARKS
CHICAGO O`HARE CLEAR     75  67  76 S8        29.88R
KANKAKEE       CLEAR     72  70  93 S7        29.92R
MOLINE         CLOUDY    74  69  85 S10       29.81S
MOUNT VERNON   CLEAR     75  68  78 S6        29.94R
PITTSFIELD     PTCLDY    75  71  86 SE3       29.87S
QUINCY         MOCLDY    76  70  82 S9        29.83F
ROCKFORD       MOCLDY    74  69  85 S13       29.85S
$$


CITY           SKY/WX    TMP DP  RH WIND       PRES   REMARKS
BURLINGTON     CLOUDY    77  70  79 S13       29.81S
CEDAR RAPIDS   CLOUDY    77  71  82 S10       29.77R
DES MOINES     TSTM      68  65  90 SE15      29.76F FOG
KIRKSVILLE     CLOUDY    76  64  66 S14       29.79F
OTTUMWA        CLOUDY    79  66  64 S13       29.76R HX  81
ST LOUIS       PTCLDY    80  70  71 S12       29.89R HX  83
$$


CITY           SKY/WX    TMP DP  RH WIND       PRES   REMARKS
TERRE HAUTE    PTCLDY    74  70  87 S6        29.96R
EVANSVILLE     MOCLDY    77  71  82 S7        29.96S
INDIANAPOLIS   PTCLDY    73  69  87 S9        29.95R
LAFAYETTE      CLEAR     73  70  90 S7        29.93R
MADISON        MOCLDY    75  69  81 S12       29.81S
MILWAUKEE      PTCLDY    74  66  76 S9        29.84S
$$




USA.gov is the U.S. government's official web portal to all federal, state and local government web resources and services.